timestamp,wind_dir_avg,wind_spd_avg,wind_spd_max_dir,wind_spd_gust,battery_voltage,lat,long
2021-10-29 00:04:00+00:00,49.0,14.87,45.0,16.99,12.57,47.59359,-54.27349
2021-10-29 00:14:01+00:00,42.0,14.06,43.0,17.69,12.49,47.59359,-54.27349
2021-10-29 00:24:01+00:00,43.0,13.48,48.0,15.61,12.49,47.59359,-54.27349
2021-10-29 00:34:01+00:00,51.0,14.95,46.0,17.36,12.49,47.59359,-54.27349
2021-10-29 00:44:01+00:00,51.0,14.18,57.0,16.49,12.49,47.59359,-54.27349
2021-10-29 00:54:01+00:00,53.0,13.82,53.0,15.49,12.49,47.59359,-54.27349
2021-10-29 01:04:01+00:00,45.0,13.37,51.0,16.95,12.49,47.59359,-54.27349
2021-10-29 01:14:00+00:00,46.0,13.19,47.0,14.58,12.49,47.59359,-54.27349
2021-10-29 01:24:00+00:00,57.0,11.91,58.0,14.05,12.49,47.59359,-54.27349
2021-10-29 01:34:00+00:00,52.0,12.36,51.0,14.0,12.49,47.59359,-54.27349
2021-10-29 01:44:00+00:00,52.0,13.62,57.0,15.82,12.49,47.59359,-54.27349
2021-10-29 01:54:00+00:00,52.0,14.54,50.0,17.15,12.49,47.59359,-54.27349
2021-10-29 02:04:00+00:00,45.0,12.96,54.0,15.2,12.49,47.59359,-54.27349
2021-10-29 02:14:00+00:00,47.0,11.41,49.0,12.9,12.41,47.59359,-54.27349
2021-10-29 02:24:00+00:00,49.0,13.96,53.0,16.63,12.41,47.59359,-54.27349
2021-10-29 02:34:00+00:00,42.0,13.55,41.0,15.84,12.41,47.59359,-54.27349
2021-10-29 02:44:00+00:00,51.0,11.45,52.0,14.73,12.41,47.59359,-54.27349
2021-10-29 02:54:00+00:00,48.0,12.54,52.0,15.24,12.41,47.59359,-54.27349
2021-10-29 03:04:00+00:00,47.0,13.07,41.0,15.23,12.41,47.59359,-54.27349
2021-10-29 03:14:01+00:00,45.0,14.36,43.0,16.44,12.41,47.59359,-54.27349
2021-10-29 03:24:01+00:00,40.0,13.27,37.0,15.09,12.41,47.59359,-54.27349
2021-10-29 03:34:01+00:00,43.0,13.58,42.0,15.13,12.41,47.59359,-54.27349
2021-10-29 03:44:01+00:00,44.0,14.54,50.0,16.79,12.41,47.59359,-54.27349
2021-10-29 03:54:01+00:00,42.0,13.92,36.0,15.46,12.41,47.59359,-54.27349
2021-10-29 04:04:01+00:00,49.0,13.66,50.0,15.9,12.41,47.59359,-54.27349
2021-10-29 04:14:00+00:00,41.0,13.65,35.0,16.46,12.33,47.59359,-54.27349
2021-10-29 04:24:00+00:00,49.0,12.74,37.0,15.28,12.33,47.59359,-54.27349
2021-10-29 04:34:00+00:00,46.0,12.94,50.0,16.7,12.33,47.59359,-54.27349
2021-10-29 04:44:00+00:00,44.0,13.13,37.0,15.53,12.33,47.59359,-54.27349
2021-10-29 04:54:00+00:00,50.0,13.71,53.0,16.09,12.33,47.59359,-54.27349
2021-10-29 05:04:00+00:00,48.0,14.88,48.0,16.56,12.33,47.59359,-54.27349
2021-10-29 05:14:01+00:00,43.0,13.46,46.0,16.13,12.25,47.59359,-54.27349
2021-10-29 05:24:01+00:00,48.0,14.58,42.0,17.14,12.25,47.59359,-54.27349
2021-10-29 05:34:01+00:00,51.0,14.09,47.0,16.39,12.25,47.59359,-54.27349
2021-10-29 05:44:01+00:00,44.0,13.59,51.0,16.3,12.25,47.59359,-54.27349
2021-10-29 05:54:01+00:00,52.0,12.74,54.0,14.89,12.25,47.59359,-54.27349
2021-10-29 06:04:01+00:00,45.0,12.95,44.0,15.54,12.25,47.59359,-54.27349
2021-10-29 06:14:01+00:00,43.0,13.15,42.0,15.71,12.25,47.59359,-54.27349
2021-10-29 06:24:01+00:00,45.0,14.5,42.0,16.35,12.25,47.59359,-54.27349
2021-10-29 06:34:01+00:00,44.0,13.48,40.0,15.86,12.25,47.59359,-54.27349
2021-10-29 06:44:01+00:00,52.0,12.96,53.0,15.65,12.25,47.59359,-54.27349
2021-10-29 06:54:01+00:00,45.0,13.69,43.0,16.39,12.25,47.59359,-54.27349
2021-10-29 07:04:01+00:00,45.0,13.42,51.0,15.9,12.25,47.59359,-54.27349
2021-10-29 07:14:01+00:00,46.0,14.04,51.0,15.99,12.25,47.59359,-54.27349
2021-10-29 07:24:01+00:00,42.0,14.16,40.0,17.24,12.25,47.59359,-54.27349
2021-10-29 07:34:01+00:00,43.0,13.92,41.0,16.29,12.25,47.59359,-54.27349
2021-10-29 07:44:01+00:00,42.0,13.64,49.0,14.99,12.25,47.59359,-54.27349
2021-10-29 07:54:01+00:00,46.0,14.36,50.0,17.87,12.25,47.59359,-54.27349
2021-10-29 08:04:01+00:00,40.0,13.92,35.0,16.78,12.25,47.59359,-54.27349
2021-10-29 08:14:00+00:00,47.0,13.75,48.0,16.22,12.25,47.59359,-54.27349
2021-10-29 08:24:00+00:00,41.0,12.22,33.0,14.68,12.25,47.59359,-54.27349
2021-10-29 08:34:00+00:00,43.0,14.52,50.0,16.35,12.25,47.59359,-54.27349
2021-10-29 08:44:00+00:00,41.0,12.61,50.0,14.32,12.25,47.59359,-54.27349
2021-10-29 08:54:00+00:00,47.0,13.65,36.0,15.58,12.25,47.59359,-54.27349
2021-10-29 09:04:00+00:00,41.0,14.83,42.0,16.55,12.25,47.59359,-54.27349
2021-10-29 09:14:00+00:00,44.0,13.03,39.0,14.71,12.25,47.59359,-54.27349
2021-10-29 09:24:00+00:00,40.0,14.67,48.0,16.7,12.25,47.59359,-54.27349
2021-10-29 09:34:00+00:00,36.0,13.78,34.0,16.13,12.25,47.59359,-54.27349
2021-10-29 09:44:00+00:00,39.0,14.62,39.0,16.94,12.25,47.59359,-54.27349
2021-10-29 09:54:00+00:00,44.0,14.87,49.0,16.69,12.25,47.59359,-54.27349
2021-10-29 10:04:00+00:00,45.0,14.51,37.0,16.85,12.25,47.59359,-54.27349
2021-10-29 10:14:01+00:00,45.0,12.48,40.0,14.32,12.33,47.59359,-54.27349
2021-10-29 10:24:01+00:00,49.0,15.0,52.0,17.15,12.33,47.59359,-54.27349
2021-10-29 10:34:01+00:00,36.0,14.05,33.0,16.2,12.33,47.59359,-54.27349
2021-10-29 10:44:01+00:00,47.0,13.35,53.0,15.49,12.33,47.59359,-54.27349
2021-10-29 10:54:01+00:00,48.0,13.98,40.0,16.36,12.33,47.59359,-54.27349
2021-10-29 11:04:01+00:00,47.0,14.3,47.0,17.43,12.33,47.59359,-54.27349
2021-10-29 11:14:01+00:00,50.0,14.03,51.0,17.06,12.33,47.59359,-54.27349
2021-10-29 11:24:01+00:00,50.0,14.04,53.0,16.63,12.33,47.59359,-54.27349
2021-10-29 11:34:01+00:00,48.0,13.22,50.0,15.36,12.33,47.59359,-54.27349
2021-10-29 11:44:01+00:00,42.0,11.74,40.0,13.87,12.33,47.59359,-54.27349
2021-10-29 11:54:01+00:00,41.0,12.23,37.0,15.78,12.33,47.59359,-54.27349
2021-10-29 12:04:01+00:00,46.0,13.3,37.0,16.62,12.33,47.59359,-54.27349
2021-10-29 12:14:01+00:00,40.0,12.82,38.0,14.83,12.41,47.59359,-54.27349
2021-10-29 12:24:01+00:00,44.0,12.47,41.0,14.44,12.41,47.59359,-54.27349
2021-10-29 12:34:01+00:00,46.0,13.1,47.0,15.57,12.41,47.59359,-54.27349
2021-10-29 12:44:01+00:00,48.0,13.92,46.0,16.43,12.41,47.59359,-54.27349
2021-10-29 12:54:01+00:00,53.0,12.75,55.0,15.69,12.41,47.59359,-54.27349
2021-10-29 13:04:01+00:00,58.0,12.99,54.0,15.36,12.41,47.59359,-54.27349
2021-10-29 13:14:01+00:00,62.0,13.59,63.0,15.12,13.21,47.59359,-54.27349
2021-10-29 13:24:01+00:00,53.0,12.89,55.0,14.63,13.21,47.59359,-54.27349
2021-10-29 13:34:01+00:00,49.0,12.38,46.0,15.12,13.21,47.59359,-54.27349
2021-10-29 13:44:01+00:00,59.0,11.8,56.0,14.35,13.21,47.59359,-54.27349
2021-10-29 13:54:01+00:00,47.0,11.44,47.0,13.59,13.21,47.59359,-54.27349
2021-10-29 14:04:01+00:00,55.0,14.23,53.0,16.8,13.21,47.59359,-54.27349
2021-10-29 14:14:00+00:00,51.0,10.96,55.0,12.51,13.53,47.59359,-54.27349
2021-10-29 14:24:00+00:00,58.0,11.97,55.0,13.55,13.53,47.59359,-54.27349
2021-10-29 14:34:00+00:00,57.0,13.91,62.0,15.41,13.53,47.59359,-54.27349
2021-10-29 14:44:00+00:00,53.0,13.76,52.0,16.71,13.53,47.59359,-54.27349
2021-10-29 14:54:00+00:00,51.0,13.94,51.0,16.03,13.53,47.59359,-54.27349
2021-10-29 15:04:00+00:00,54.0,12.93,56.0,15.62,13.53,47.59359,-54.27349
2021-10-29 15:14:00+00:00,54.0,13.88,55.0,15.76,13.44,47.59359,-54.27349
2021-10-29 15:24:00+00:00,53.0,12.39,56.0,14.4,13.44,47.59359,-54.27349
2021-10-29 15:34:00+00:00,50.0,12.62,56.0,14.88,13.44,47.59359,-54.27349
2021-10-29 15:44:00+00:00,57.0,12.5,62.0,14.53,13.44,47.59359,-54.27349
2021-10-29 15:54:00+00:00,60.0,11.74,60.0,13.95,13.44,47.59359,-54.27349
2021-10-29 16:04:00+00:00,52.0,12.42,46.0,14.14,13.44,47.59359,-54.27349
2021-10-29 16:14:00+00:00,56.0,10.68,57.0,12.83,13.6,47.59359,-54.27349
2021-10-29 16:24:00+00:00,55.0,11.4,56.0,12.91,13.6,47.59359,-54.27349
2021-10-29 16:34:00+00:00,43.0,11.64,53.0,13.27,13.6,47.59359,-54.27349
2021-10-29 16:44:00+00:00,44.0,11.1,59.0,14.31,13.6,47.59359,-54.27349
2021-10-29 16:54:00+00:00,56.0,10.91,58.0,13.21,13.6,47.59359,-54.27349
2021-10-29 17:04:00+00:00,51.0,10.9,59.0,13.14,13.6,47.59359,-54.27349
2021-10-29 17:14:01+00:00,51.0,10.68,61.0,12.7,13.68,47.59359,-54.27349
2021-10-29 17:24:01+00:00,48.0,10.33,47.0,11.78,13.68,47.59359,-54.27349
2021-10-29 17:34:01+00:00,54.0,8.98,48.0,10.8,13.68,47.59359,-54.27349
2021-10-29 17:44:01+00:00,52.0,10.29,53.0,11.78,13.68,47.59359,-54.27349
2021-10-29 17:54:01+00:00,59.0,8.83,64.0,11.22,13.68,47.59359,-54.27349
2021-10-29 18:04:01+00:00,36.0,10.79,37.0,12.21,13.68,47.59359,-54.27349
2021-10-29 18:14:01+00:00,35.0,11.26,35.0,13.29,13.6,47.59359,-54.27349
2021-10-29 18:24:01+00:00,41.0,11.23,40.0,13.9,13.6,47.59359,-54.27349
2021-10-29 18:34:01+00:00,40.0,11.0,47.0,12.7,13.6,47.59359,-54.27349
2021-10-29 18:44:01+00:00,49.0,10.54,60.0,12.38,13.6,47.59359,-54.27349
2021-10-29 18:54:01+00:00,38.0,10.17,41.0,12.35,13.6,47.59359,-54.27349
2021-10-29 19:04:01+00:00,42.0,9.84,40.0,11.67,13.6,47.59359,-54.27349
2021-10-29 19:14:00+00:00,26.0,9.1,34.0,10.93,13.21,47.59359,-54.27349
2021-10-29 19:24:00+00:00,45.0,9.12,53.0,11.6,13.21,47.59359,-54.27349
2021-10-29 19:34:00+00:00,45.0,10.19,53.0,11.86,13.21,47.59359,-54.27349
2021-10-29 19:44:00+00:00,40.0,10.5,41.0,11.9,13.21,47.59359,-54.27349
2021-10-29 19:54:00+00:00,49.0,11.28,56.0,13.28,13.21,47.59359,-54.27349
2021-10-29 20:04:00+00:00,42.0,11.12,40.0,12.11,13.21,47.59359,-54.27349
2021-10-29 20:14:01+00:00,40.0,10.7,44.0,12.8,12.73,47.59359,-54.27349
2021-10-29 20:24:01+00:00,44.0,11.01,50.0,12.27,12.73,47.59359,-54.27349
2021-10-29 20:34:01+00:00,51.0,10.03,61.0,13.45,12.73,47.59359,-54.27349
2021-10-29 20:44:01+00:00,40.0,10.73,36.0,12.08,12.73,47.59359,-54.27349
2021-10-29 20:54:01+00:00,32.0,10.59,34.0,13.6,12.73,47.59359,-54.27349
2021-10-29 21:04:01+00:00,45.0,10.09,41.0,11.57,12.73,47.59359,-54.27349
2021-10-29 21:14:01+00:00,43.0,10.87,52.0,12.67,12.65,47.59359,-54.27349
2021-10-29 21:24:01+00:00,41.0,10.74,37.0,12.39,12.65,47.59359,-54.27349
2021-10-29 21:34:01+00:00,40.0,9.99,41.0,11.8,12.65,47.59359,-54.27349
2021-10-29 21:44:01+00:00,44.0,9.67,47.0,10.7,12.65,47.59359,-54.27349
2021-10-29 21:54:01+00:00,56.0,9.53,48.0,10.75,12.65,47.59359,-54.27349
2021-10-29 22:04:01+00:00,56.0,10.44,52.0,11.87,12.65,47.59359,-54.27349
2021-10-29 22:14:01+00:00,47.0,9.94,37.0,12.15,12.65,47.59359,-54.27349
2021-10-29 22:24:01+00:00,52.0,10.16,58.0,11.89,12.65,47.59359,-54.27349
2021-10-29 22:34:01+00:00,60.0,10.5,60.0,13.21,12.65,47.59359,-54.27349
2021-10-29 22:44:01+00:00,62.0,10.09,60.0,11.41,12.65,47.59359,-54.27349
2021-10-29 22:54:01+00:00,58.0,9.41,63.0,11.18,12.65,47.59359,-54.27349
2021-10-29 23:04:01+00:00,48.0,9.65,41.0,12.0,12.65,47.59359,-54.27349
2021-10-29 23:14:00+00:00,48.0,10.04,45.0,11.35,12.57,47.59359,-54.27349
2021-10-29 23:24:00+00:00,50.0,9.3,41.0,10.55,12.57,47.59359,-54.27349
2021-10-29 23:34:00+00:00,55.0,10.68,52.0,12.79,12.57,47.59359,-54.27349
2021-10-29 23:44:00+00:00,38.0,10.07,36.0,11.79,12.57,47.59359,-54.27349
2021-10-29 23:54:00+00:00,51.0,10.68,40.0,13.25,12.57,47.59359,-54.27349
